User: anonymous   Login
Location: Little Chesterford
(52.0500°N, 0.1833°E)
Time: 05:10:46
(UTC+00:00)
Language:

Cosmos 2369 Rocket - Orbit

View from above orbital plane
View from above orbital plane
View from above satellite
View from above satellite

Ground track
Ground track

The orbit data is extracted from the following two-line orbital elements,

1 26070U 00006B   24060.59819147  .00000312  00000-0  18324-3 0  9994
2 26070  71.0011 211.6594 0018323 231.1379 128.8109 14.15605715243955
Epoch (UTC): 29 February 2024 14:21:23
Eccentricity: 0.0018323
inclination: 71.0011°
perigee height: 827 km
apogee height: 853 km
right ascension of ascending node: 211.6594°
argument of perigee: 231.1379°
revolutions per day: 14.15605715
mean anomaly at epoch: 128.8109°
orbit number at epoch: 24395

The dashed part of the orbit path shows where the satellite is in the earth's shadow,  

DLR